TimeCST,TemperatureF,Dew PointF,Humidity,Sea Level PressureIn,VisibilityMPH,Wind Direction,Wind SpeedMPH,Gust SpeedMPH,PrecipitationIn,Events,Conditions,WindDirDegrees,DateUTC
12:00 AM,75,73,91,30.11,6,NNE,1.2,,,Rain,Light Rain,20,2012-11-28 06:00:00
3:00 AM,72,71,97,30.08,12,North,6.9,,,,Partly Cloudy,350,2012-11-28 09:00:00
5:00 AM,73.4,69.8,88,30.09,6.2,NNW,8.1,-,N/A,,Mostly Cloudy,340,2012-11-28 11:00:00
6:00 AM,72,71,94,30.12,12,NW,5.8,,,,Partly Cloudy,320,2012-11-28 12:00:00
6:00 AM,73.4,69.8,88,30.09,6.2,NW,5.8,-,N/A,,Mostly Cloudy,320,2012-11-28 12:00:00
7:00 AM,73.4,71.6,94,30.12,6.2,NW,6.9,-,N/A,,Mostly Cloudy,310,2012-11-28 13:00:00
8:00 AM,75.2,71.6,89,30.15,6.2,NW,9.2,-,N/A,,Mostly Cloudy,320,2012-11-28 14:00:00
9:00 AM,76,72,82,30.17,12,NNW,9.2,,,,Mostly Cloudy,330,2012-11-28 15:00:00
9:00 AM,75.2,71.6,89,30.17,6.2,NNW,9.2,-,N/A,,Mostly Cloudy,330,2012-11-28 15:00:00
10:00 AM,78.8,73.4,83,30.17,6.2,NNW,8.1,-,N/A,,Mostly Cloudy,330,2012-11-28 16:00:00
11:00 AM,80.6,73.4,79,30.15,6.2,North,9.2,-,N/A,,Mostly Cloudy,350,2012-11-28 17:00:00
12:00 PM,82,73,67,30.13,12,North,10.4,,,,Mostly Cloudy,0,2012-11-28 18:00:00
12:00 PM,82.4,73.4,74,30.13,6.2,North,10.4,-,N/A,,Mostly Cloudy,360,2012-11-28 18:00:00
1:00 PM,82.4,71.6,70,30.09,6.2,North,10.4,-,N/A,,Mostly Cloudy,10,2012-11-28 19:00:00
2:00 PM,82.4,71.6,70,30.07,6.2,NNE,6.9,-,N/A,,Mostly Cloudy,30,2012-11-28 20:00:00
3:00 PM,82,74,70,30.06,12,NNE,5.8,,,,Mostly Cloudy,30,2012-11-28 21:00:00
3:00 PM,82.4,73.4,74,30.05,6.2,NNE,5.8,-,N/A,,Mostly Cloudy,30,2012-11-28 21:00:00
4:00 PM,82.4,71.6,70,30.05,6.2,North,9.2,-,N/A,,Mostly Cloudy,360,2012-11-28 22:00:00
4:45 PM,-9999,-9999,N/A,30.07,5.6,North,11.5,-,N/A,,Mostly Cloudy,10,2012-11-28 22:45:00
5:00 PM,77.0,73.4,89,30.07,5.6,NE,9.2,-,N/A,Rain,Light Rain Showers,40,2012-11-28 23:00:00
5:15 PM,-9999,-9999,N/A,30.08,5.0,NE,9.2,-,N/A,Rain,Heavy Rain Showers,50,2012-11-28 23:15:00
6:00 PM,77,73,83,30.10,6,NNE,5.8,,,Rain,Light Rain Showers,30,2012-11-29 00:00:00
6:00 PM,77.0,73.4,89,30.09,5.6,NNE,5.8,-,N/A,Rain,Light Rain Showers,30,2012-11-29 00:00:00
9:00 PM,73,72,95,30.17,3,NNE,11.5,,,Rain,Rain,30,2012-11-29 03:00:00